Regional Weather Roundup
Issued by NWS Sterling, VA

Home | Current Version | Previous Version | Text Only | Print | Product List | Glossary Off
Versions: 1 2 3 4 5 6 7 8 9 10 11 12 13 14 15 16 17 18 19 20 21 22 23 24 25 26 27 28 29 30 31 32 33 34 35 36 37 38 39 40 41 42 43 44 45 46 47 48 49 50

000
ASUS41 KLWX 300410
RWRLWX

REGIONAL WEATHER ROUNDUP
NATIONAL WEATHER SERVICE BALTIMORE MD/WASHINGTON DC
1200 AM EDT SAT AUG 30 2014

Note: "FAIR" indicates few or no clouds below 12,000 feet
with no significant weather and/or obstructions to visibility.
 TC=TEMPERATURE CELSIUS

 * =Non NWS site. Station does not report precipitation (e.g. rain,
    snow, etc.), thunder, or fog.

DCZ001-MDZ009-015-VAZ040>042-051-053>054-300500-
WASHINGTON METRO
  /KDAA//-FT BELVOIR

CITY           SKY/WX    TMP DP  RH WIND       PRES   REMARKS
WASHINGTON NAT MOCLDY    73  61  65 SE8       30.22S
DULLES         MOCLDY    66  56  70 SE3       30.22R
ANDREWS AFB    MOCLDY    64  61  88 E8        30.22S
QUANTICO       PTCLDY    67  62  84 CALM      30.22S
COLLEGE PARK*  CLOUDY    68  61  77 CALM      30.22S
LEESBURG*      MOCLDY    64  61  88 CALM      30.23S
MANASSAS*      CLOUDY    64  64 100 CALM      30.21S
GAITHERSBURG*  MOCLDY    64  55  72 CALM      30.26S

$$

MDZ006>007-011-014-300500-
BALTIMORE METRO

CITY           SKY/WX    TMP DP  RH WIND       PRES   REMARKS
BWI AIRPORT    MOCLDY    66  59  78 SE3       30.22S
MD SCIENCE CTR   N/A     71  60  68 MISG      30.23S
MARTIN STATE   CLEAR     70  64  83 E10       30.24S
ANNAPOLIS      PTCLDY    71  63  75 SE16      30.22S
FORT MEADE*    CLOUDY    59  55  88 CALM      30.25S

$$

MDZ012-015-019>023-300500-
MARYLAND EASTERN SHORE

CITY           SKY/WX    TMP DP  RH WIND       PRES   REMARKS
OCEAN CITY     CLEAR     70  61  73 SE6       30.22S
SALISBURY      CLEAR     63  58  83 CALM      30.23S
BAY BRIDGE AP*   N/A     70  61  73 SE7       30.23S
CAMBRIDGE*     CLEAR     63  59  88 CALM      30.22S
EASTON*        CLEAR     65  63  90 CALM      30.26F

$$

MDZ017>025-300500-
SOUTHERN MARYLAND

CITY           SKY/WX    TMP DP  RH WIND       PRES   REMARKS
PATUXENT RIVER CLEAR     71  61  70 SE9       30.21S
ST INIGOES     CLEAR     68  59  73 E3        30.21S
LEONARDTOWN*   CLEAR     66  59  77 CALM      30.23S

$$

MDZ003>005-300500-
NORTH CENTRAL MARYLAND

CITY           SKY/WX    TMP DP  RH WIND       PRES   REMARKS
FREDERICK*     MOCLDY    61  59  94 CALM      30.25R
HAGERSTOWN APT PTCLDY    66  54  65 CALM      30.22R
WESTMINSTER*   CLEAR     64  59  82 SE9       30.23S

$$

MDZ501>502-300500-
WESTERN MARYLAND

CITY           SKY/WX    TMP DP  RH WIND       PRES   REMARKS
OAKLAND*       CLEAR     59  59 100 SE13      30.23S
CUMBERLAND*    CLEAR     64  55  72 CALM      30.22F

$$

VAZ025>031-300500-
SHENANDOAH VALLEY

CITY           SKY/WX    TMP DP  RH WIND       PRES   REMARKS
WINCHESTER*    CLOUDY    66  59  77 CALM      30.21S
STAUNTON*      CLOUDY    69  61  76 CALM      30.23S

$$

WVZ021-048>050-054>055-300500-
EASTERN WEST VIRGINIA PANHANDLE

CITY           SKY/WX    TMP DP  RH WIND       PRES   REMARKS
MARTINSBURG    CLOUDY    66  56  70 CALM      30.21S
PETERSBURG*    NOT AVBL

$$

VAZ036>039-050-300500-
CENTRAL FOOTHILLS

CITY           SKY/WX    TMP DP  RH WIND       PRES   REMARKS
CHARLOTTESVILL CLOUDY    68  63  84 NW5       30.21R
ORANGE*        CLOUDY    70  59  68 E5        30.22S

$$

VAZ055>057-300500-
NORTH AND CENTRAL PIEDMONT

CITY           SKY/WX    TMP DP  RH WIND       PRES   REMARKS
FREDERICKSBRG* PTCLDY    64  60  85 CALM      30.21R
STAFFORD*      CLEAR     60  60 100 CALM      30.25S

$$

NCZ024-NYZ072-PAZ021-071-VAZ022-071-300500-
OTHER REGIONAL OBSERVATIONS

CITY           SKY/WX    TMP DP  RH WIND       PRES   REMARKS
NEW YORK CITY  CLEAR     67  53  61 VRB3      30.28R
PHILADELPHIA   PTCLDY    68  59  73 S5        30.25R
PITTSBURGH     CLEAR     64  57  78 CALM      30.13R
ROANOKE        CLOUDY    74  67  78 E5        30.23R
RICHMOND       MOCLDY    71  63  75 CALM      30.20S
RALEIGH        CLOUDY    76  69  79 SE7       30.19R

$$

ANZ530>537-300500-
MARINE OBSERVATIONS

STATION/POSITION TIME  TEMP    WIND        PRES
                       AIR SEA DIR/SP/G
                 (UTC) (F)     (DEG/KT/KT) (MB)
THOMAS PT LIGHT  0400   71 77  140/ 12/ 15 1024.3R
BALT KEY BRIDGE  0400   77     130/ 12/ 15 1023.1S
COVE POINT       0400   72     160/ 13/ 16 1023.1R
LEWISETTA        0400   71 78  160/  5/  6 1022.8S
SOLOMONS ISLAND  0400      80                N/A
PINEY POINT      0400          170/ 11/ 13   N/A

$$




USA.gov is the U.S. government's official web portal to all federal, state and local government web resources and services.